Overview Statistics Trail Chart Weather Telemetry Raw packets
 

This is the latest recevied weather packets stored in our database for station/object KI6PPU. If no packets are shown the sender has not sent any weather packets the latest 10 day(s).

<< 105 106 107 108 109 110 111 >>
Time Temp. Humidity Pressure Rain* Wind** Luminosity Snow
1787770070 35° C 29% 1018.6 hPa 0 mm - 710 W/m² -
1787769765 35° C 28% 1018.6 hPa 0 mm - 716 W/m² -
1787769464 34.44° C 29% 1018.4 hPa 0 mm - 811 W/m² -
1787769159 34.44° C 29% 1018.6 hPa 0 mm - 551 W/m² -
1787768853 35° C 29% 1018.6 hPa 0 mm - 602 W/m² -
1787768549 34.44° C 30% 1018.5 hPa 0 mm - 559 W/m² -
1787768245 34.44° C 31% 1018.5 hPa 0 mm - 573 W/m² -
1787767941 33.33° C 31% 1018.8 hPa 0 mm - 505 W/m² -
1787767636 33.33° C 32% 1018.6 hPa 0 mm - 599 W/m² -
1787767335 33.33° C 32% 1018.4 hPa 0 mm - 581 W/m² -
1787767029 32.78° C 32% 1018.5 hPa 0 mm - 546 W/m² -
1787766728 32.22° C 33% 1018.5 hPa 0 mm - 629 W/m² -
1787766431 32.78° C 33% 1018.8 hPa 0 mm - 761 W/m² -
1787766122 32.78° C 33% 1018.6 hPa 0 mm - 702 W/m² -
1787765817 32.22° C 33% 1018.6 hPa 0 mm - 691 W/m² -
1787765514 32.78° C 33% 1018.6 hPa 0 mm - 559 W/m² -
1787765213 32.78° C 33% 1018.5 hPa 0 mm - 565 W/m² -
1787764907 32.78° C 33% 1018.6 hPa 0 mm - 657 W/m² -
1787764602 33.33° C 32% 1018.4 hPa 0 mm - 582 W/m² -
1787764297 32.22° C 34% 1018.6 hPa 0 mm - 537 W/m² -
1787763994 32.22° C 34% 1018.8 hPa 0 mm - 624 W/m² -
1787763689 32.22° C 35% 1018.5 hPa 0 mm - 609 W/m² -
1787763384 32.22° C 35% 1018.4 hPa 0 mm - 519 W/m² -
1787763084 31.67° C 36% 1018.4 hPa 0 mm - 494 W/m² -
1787762784 31.67° C 36% 1018.5 hPa 0 mm - 522 W/m² -

* Rain latest hour (hover to see other rain measurements)
** Current wind speed in m/s (hover to see current wind gust speed)